South Lake Tahoe, CA

7:24 AM PST on January 24, 2017 (GMT -0800)
Lake Tahoe

Weather History for KTVL - April, 2014

Change the Weather History Date:

Thursday, April 24, 2014

  Actual Average Record
Temperature  
Mean Temperature 44 °F 42 °F  
Max Temperature 57 °F 57 °F 70 °F (1977)
Min Temperature 30 °F 28 °F 19 °F (2008)
Degree Days  
Heating Degree Days 21 23  
Month to date heating degree days 494 607  
Since 1 July heating degree days 5894 6759  
Cooling Degree Days 0 0  
Month to date cooling degree days 0 0  
Year to date cooling degree days 0 0  
Moisture  
Dew Point 26 °F    
Average Humidity 56    
Maximum Humidity 82    
Minimum Humidity 30    
Precipitation  
Precipitation 0.01 in - 0.68 in (1969)
Month to date precipitation 0.32  
Year to date precipitation 10.66  
Sea Level Pressure  
Sea Level Pressure 29.98 in    
Wind  
Wind Speed 6 mph (South)    
Max Wind Speed 24 mph    
Max Gust Speed 37 mph    
Visibility 10 miles    
Events Rain    
T = Trace of Precipitation, MM = Missing Value Source: NWS Daily Summary

Daily Weather History Graph

Daily Weather History Graph

Search for Another Location

Airport or City:

Trip Planner

Search our weather history database for the weather conditions in past years. The results will help you decide how hot, cold, wet, or windy it might be!

Date:

Astronomy

Apr. 24, 2014 Rise Set
Actual Time 6:10 AM PDT 7:45 PM PDT
Civil Twilight 5:42 AM PDT 8:14 PM PDT
Nautical Twilight 5:08 AM PDT 8:48 PM PDT
Astronomical Twilight 4:32 AM PDT 9:24 PM PDT
Moon 3:22 AM PDT 3:09 PM PDT
Length of Visible Light 14h 31m
Length of Day
13h 34m
Waning Crescent, 23% of the Moon is Illuminated
Apr 24
Waning Crescent
Apr 28
New
May 6
First Quarter
May 14
Full
May 21
Last Quarter

Hourly Weather History & Observations

Time (PDT) Temp. Windchill Dew Point Humidity Pressure Visibility Wind Dir Wind Speed Gust Speed Precip Events Conditions
12:53 AM 34.0 °F - 28.0 °F 79% 30.06 in 10.0 mi Calm Calm - N/A   Clear
1:53 AM 33.1 °F - 27.0 °F 78% 30.05 in 10.0 mi Calm Calm - N/A   Clear
2:53 AM 32.0 °F - 26.1 °F 79% 30.03 in 10.0 mi Calm Calm - N/A   Clear
3:53 AM 30.9 °F - 25.0 °F 79% 30.03 in 10.0 mi Calm Calm - N/A   Clear
4:53 AM 30.0 °F - 24.1 °F 79% 30.03 in 10.0 mi Calm Calm - N/A   Partly Cloudy
5:53 AM 30.0 °F - 23.0 °F 75% 30.03 in 10.0 mi Calm Calm - N/A   Clear
6:53 AM 36.0 °F 33.3 °F 26.1 °F 67% 30.04 in 10.0 mi South 3.5 mph - N/A   Partly Cloudy
7:53 AM 44.1 °F 39.0 °F 28.9 °F 55% 30.02 in 10.0 mi South 9.2 mph - N/A   Scattered Clouds
8:53 AM 50.0 °F - 28.0 °F 43% 30.01 in 10.0 mi South 13.8 mph - N/A   Partly Cloudy
9:53 AM 53.1 °F - 27.0 °F 37% 30.01 in 10.0 mi South 16.1 mph - N/A   Clear
10:53 AM 55.9 °F - 26.1 °F 32% 30.01 in 10.0 mi South 10.4 mph 21.9 mph N/A   Partly Cloudy
11:53 AM 54.0 °F - 27.0 °F 35% 30.03 in 10.0 mi South 12.7 mph 23.0 mph N/A   Mostly Cloudy
12:53 PM 55.0 °F - 28.0 °F 35% 30.02 in 10.0 mi South 11.5 mph 20.7 mph N/A   Mostly Cloudy
1:53 PM 55.0 °F - 28.9 °F 37% 30.01 in 10.0 mi SSW 15.0 mph 26.5 mph N/A   Mostly Cloudy
2:53 PM 55.9 °F - 28.0 °F 34% 29.99 in 10.0 mi SW 11.5 mph 23.0 mph N/A   Partly Cloudy
3:53 PM 55.0 °F - 28.0 °F 35% 29.98 in 10.0 mi SSW 10.4 mph 21.9 mph N/A   Scattered Clouds
4:53 PM 55.0 °F - 25.0 °F 31% 29.95 in 10.0 mi South 18.4 mph 29.9 mph N/A   Scattered Clouds
5:53 PM 53.1 °F - 24.1 °F 32% 29.94 in 10.0 mi SSW 11.5 mph 20.7 mph N/A   Partly Cloudy
6:53 PM 50.0 °F - 27.0 °F 41% 29.92 in 10.0 mi South 17.3 mph 27.6 mph N/A   Scattered Clouds
7:53 PM 48.0 °F - 19.9 °F 33% 29.90 in 10.0 mi SW 9.2 mph 20.7 mph 0.00 in   Scattered Clouds
8:53 PM 46.9 °F - 18.0 °F 32% 29.87 in 10.0 mi SSW 12.7 mph 28.8 mph N/A   Partly Cloudy
9:53 PM 45.0 °F 41.8 °F 19.0 °F 36% 29.85 in 10.0 mi ESE 5.8 mph 24.2 mph N/A   Clear
10:53 PM 44.1 °F 39.0 °F 21.0 °F 40% 29.82 in 10.0 mi South 9.2 mph - N/A   Clear
11:53 PM 39.9 °F 30.8 °F 30.0 °F 68% 29.84 in 9.0 mi South 18.4 mph 27.6 mph 0.00 in Rain Light Rain